TimeEDT,TemperatureF,Dew PointF,Humidity,Sea Level PressureIn,VisibilityMPH,Wind Direction,Wind SpeedMPH,Gust SpeedMPH,PrecipitationIn,Events,Conditions,WindDirDegrees,DateUTC
12:56 AM,66.0,60.1,81,30.03,10.0,Calm,Calm,-,N/A,,Clear,0,2013-10-22 04:56:00
1:56 AM,64.0,60.1,87,30.03,10.0,NNE,3.5,-,N/A,,Clear,30,2013-10-22 05:56:00
2:56 AM,64.9,61.0,87,30.02,10.0,Calm,Calm,-,N/A,,Clear,0,2013-10-22 06:56:00
3:56 AM,64.9,61.0,87,29.99,10.0,Calm,Calm,-,N/A,,Clear,0,2013-10-22 07:56:00
4:56 AM,63.0,60.1,90,29.99,9.0,NNE,3.5,-,N/A,,Clear,30,2013-10-22 08:56:00
5:56 AM,63.0,60.1,90,29.98,10.0,Calm,Calm,-,N/A,,Clear,0,2013-10-22 09:56:00
6:56 AM,63.0,60.1,90,29.99,10.0,NE,4.6,-,N/A,,Mostly Cloudy,40,2013-10-22 10:56:00
7:56 AM,64.0,60.1,87,29.99,10.0,North,3.5,-,N/A,,Mostly Cloudy,360,2013-10-22 11:56:00
8:56 AM,64.0,60.1,87,29.99,10.0,Calm,Calm,-,N/A,,Overcast,0,2013-10-22 12:56:00
9:56 AM,66.0,60.1,81,29.99,10.0,Calm,Calm,-,N/A,,Overcast,0,2013-10-22 13:56:00
10:56 AM,68.0,57.9,70,29.98,10.0,NNE,3.5,-,N/A,,Overcast,30,2013-10-22 14:56:00
11:56 AM,69.1,55.9,63,29.96,10.0,East,3.5,-,N/A,,Overcast,90,2013-10-22 15:56:00
12:56 PM,66.9,59.0,76,29.95,5.0,ENE,4.6,-,0.00,Rain,Light Rain,60,2013-10-22 16:56:00
1:56 PM,68.0,60.1,76,29.93,10.0,Calm,Calm,-,0.00,,Overcast,0,2013-10-22 17:56:00
2:56 PM,69.1,59.0,70,29.91,10.0,North,4.6,-,N/A,,Mostly Cloudy,360,2013-10-22 18:56:00
3:56 PM,68.0,59.0,73,29.89,10.0,NE,4.6,-,N/A,,Overcast,40,2013-10-22 19:56:00
4:56 PM,66.9,59.0,76,29.89,10.0,NE,4.6,-,0.00,,Overcast,40,2013-10-22 20:56:00
5:56 PM,66.0,62.1,87,29.89,10.0,Calm,Calm,-,0.00,,Overcast,0,2013-10-22 21:56:00
6:56 PM,66.0,61.0,84,29.88,10.0,Calm,Calm,-,N/A,,Overcast,0,2013-10-22 22:56:00
7:56 PM,64.9,61.0,87,29.89,9.0,Calm,Calm,-,N/A,Rain,Light Rain,0,2013-10-22 23:56:00
8:56 PM,64.9,62.1,90,29.89,10.0,NNW,4.6,-,N/A,,Overcast,340,2013-10-23 00:56:00
9:56 PM,64.0,62.1,93,29.89,4.0,Calm,Calm,-,N/A,Rain,Light Rain,0,2013-10-23 01:56:00
10:56 PM,63.0,61.0,93,29.89,5.0,SSE,3.5,-,N/A,,Overcast,160,2013-10-23 02:56:00
11:56 PM,64.0,61.0,90,29.87,9.0,SW,3.5,-,N/A,Rain,Light Rain,230,2013-10-23 03:56:00